IRIDIUM 33 DEB, 34525

Orbit data source: Space-Track

IRIDIUM 33 DEB, 34525 is space debris in LEO originally from a launch on Sun, 14 Sep 1997 UTC launched from the Tyuratam Missile And Space Complex (TTMTR). The debris from Iridium 33, an American commercial communications satellite, has been tracked extensively since its accidental collision with the defunct Russian satellite Cosmos 2251 in 2009. This event, occurring at high speed in low Earth orbit (LEO), generated thousands of pieces of space debris, significantly increasing the risk of further collisions. The Iridium 33 debris cloud has impacted space traffic management and orbital debris mitigation strategies, making it a subject of ongoing study in space situational awareness.

Loading next visibility...
Identifier
34525, 1997-051HS
Orbit
LEO
Country
Flag of USUS
Related business
Manufacturer
Unknown
Mission
Spacecraft
Bus & Motor
Unknown
Mass
Unknown
Launch date (UTC)
1997-09-14 (28 years ago)
Launch vehicle
Unknown
Launch site
Tyuratam Missile And Space Complex (TTMTR)
Object type
Payload
Rocket body
Debris
Shape & HBR
Unknown shape, 0.1 m
Radar Cross Section
Small (<0.1 m²)

Expand to show TLE details & history
Last TLE update: 22 hours ago

TLE from 22 hours ago
0 IRIDIUM 33 DEB
1 34525U 97051HS  25353.13487072  .00000907  00000-0  26538-3 0  9994
2 34525  86.3722  44.1141 0006508  80.5154 309.0130 14.42920186881804
Epoch: 2025-12-19T03:14Z
TLE epoch observation values (Epoch: 2025-12-19T03:14:12.830Z)
Latitude
29.45359°
Longitude
-90.37889°
Altitude
749.75 km
Speed
7.484 km/s
True Right ascension
03h 04m 37s
True Declination
29° 18' 23"
Sunlit
Object was in full shadow at epoch
Visualization orbit readout
Latitude
Unknown
Longitude
Unknown
Altitude
Unknown
Speed
Unknown
Apparent Right ascension
Unknown
Apparent Declination
Unknown
Sunlit
N/A
Visualization observer readout
Local Sidereal Time
23:44:29
Azimuth
Unknown
Elevation
Unknown
Doppler factor
Unknown
Orbital elements
Apogee altitude
750.455 km
Perigee altitude
741.183 km
Semi-major axis
7,123.956 km
Eccentricity
0.00065
Inclination
86.3722°
RAAN
44.1141°
Arg. of periapsis
80.5154°
True anomaly
308.95502°
Mean anomaly
309.013°
Eccentric anomaly
308.98402°
Mean motion
3.60962 °/min
Orbital period
99.73 mins
BSTAR
0.00026538
Loading maneuver chart data...
Computing Atmospheric mass density...

Documentation

Showing up to 5 results
|